Forside
METAR-TAF:

METAR-TAF

Lufthavne :

St. Paul Downtown Airport (Holman Field)

Saint Paul, Minnesota, USA

Breddekreds: 44-55-49N, længdekreds: 093-02-53W, højde: 214 m

Aktuelle vejr

Denne rapport blev lavet for 23 minutter siden, kl. 06:53 UTC
Vind 4 kt fra nordnordvest
Temperatur 3°C
Fugtighed 65%
Tryk 1012 hPa
Sigt: 16.1 km
skyfri

METAR: KSTP 290653Z AUTO 33004KT 10SM CLR 03/M03 A2988 RMK AO2 SLP119 T00281028

Tid: 01:16 (07:16 UTC)


TAF: fraværende

Vejrobservationer og prognoser fra mere end 4000 lufthavne (METAR og TAF).

De gule og røde prikker repræsenterer de meteorologiske stationer.

Flyt musen over at se navnet på stationen.

Så klik over at se vejr observationer og prognoser.

At skifte det kort: Klik på de grønne knapper med et sort kors for at zoome ind; på den grønne knap med en bindestreg for at zoome ud; eller på de grønne pile for tilstødende kort.


METAR-TAF: